Location: Potomac
(46.8816°N, 113.5795°W)
Time: 23:03:33
(UTC+00:00)

UKube-1 - Pass Details

Date: 01 July 2022
Orbit: 608 x 615 km, 98.4° (Epoch: 07 August)

Event Time Altitude Azimuth Distance (km) Brightness Sun altitude
Rises 05:57:48 0° 10° (N) 2,896 ? -16.4°
Reaches altitude 10° 06:00:01 10° 7° (N) 1,985 ? -16.6°
Maximum altitude 06:04:16 61° 288° (WNW) 698 ? -16.9°
Enters shadow 06:07:22 18° 211° (SSW) 1,522 ? -17.1°
